Content
SEND FEEDBACK

Daily
Averages
Monthly
Summary
United States of America

DEWEY, UTAH


Home > North America > United States > Utah
Elevation: 4438 feet     Latitude: 38 48N     Longitude: 109 18W

WEATHER
 
SELECT A DAY
Number of Records: 147,651;   Date Range: 1/3/95 - 10/29/14
 
SHARE

PRINT THIS DATA

[ ← Previous Day ]
WEATHER ALMANAC - FEBRUARY 13, 2013
[ Next Day → ]
[ °C ]   °F
Weather ElementAverageHighLow
Temperature28.2 °F36 °F (3:53 pm)21 °F (6:53 am)
Dewpoint20.2 °F25 °F (9:53 pm)15.1 °F (6:53 am)
Humidity73.3 %92 % (11:53 pm)52 % (3:53 pm)
Barometer30.30 in30.37 in (7:53 am)30.24 in (4:53 am)
Wind Speed3.1 mph9.2 mph (11:53 am)
Weather ElementAverage
Visibility10 mi
Wind DirectionSE (131.3 °)

Weather ElementTotal
Precipitation---
Heating Degree Days36.5 (Base 65)
Averaged from 23 records on February 13, 2013
WEATHER CONDITIONS BREAKOUT
WIND DIRECTION BREAKOUT
WEATHER BY HOUR - FEBRUARY 13, 2013
[ °C ]   °F
Local TimeTemperatureDewpointHumidityBarometerVisibilityWind DirectionWind SpeedGust SpeedPrecipitationEventsConditions
1:53 AM21.9 °F18.0 °F85 %30.32 in10.0 miCalmClear
2:53 AM23.0 °F19.0 °F85 %30.33 in10.0 miNNE (20°)4.6 mphClear
3:53 AM21.9 °F18.0 °F85 %30.33 in10.0 miWest (270°)3.5 mphClear
4:53 AM21.2 °F17.6 °F86 %30.24 in10.0 miCalmClear
5:53 AM21.9 °F16.0 °F78 %30.34 in10.0 miCalmClear
6:53 AM21.0 °F15.1 °F78 %30.35 in10.0 miCalmClear
7:53 AM21.0 °F16.0 °F81 %30.37 in10.0 miCalmClear
8:53 AM26.1 °F19.0 °F75 %30.36 in10.0 miSE (130°)6.9 mphClear
9:53 AM28.0 °F17.1 °F63 %30.37 in10.0 miSSE (150°)4.6 mphClear
10:53 AM32.0 °F17.1 °F54 %30.37 in10.0 miCalmClear
11:53 AM30.9 °F21.9 °F69 %30.36 in10.0 miNW (310°)9.2 mphClear
12:53 PM33.1 °F21.9 °F64 %30.33 in10.0 miNW (320°)8.1 mphClear
1:53 PM34.0 °F21.9 °F61 %30.30 in10.0 miNNW (330°)6.9 mphClear
2:53 PM35.1 °F19.9 °F54 %30.27 in10.0 miNNW (330°)6.9 mphClear
3:53 PM36.0 °F19.9 °F52 %30.26 in10.0 miWNW (290°)4.6 mphClear
4:53 PM36.0 °F21.0 °F55 %30.25 in10.0 miNorth (360°)6.9 mphClear
5:53 PM33.1 °F23.0 °F66 %30.25 in10.0 miCalmClear
6:53 PM30.9 °F24.1 °F76 %30.26 in10.0 miWest (260°)4.6 mphClear
7:53 PM30.0 °F24.1 °F79 %30.25 in10.0 miCalmClear
8:53 PM30.0 °F23.0 °F75 %30.25 in10.0 miCalmClear
9:53 PM28.0 °F25.0 °F88 %30.25 in10.0 miWSW (250°)3.5 mphClear
10:53 PM27.0 °F23.0 °F85 %30.24 in10.0 miCalmClear
11:53 PM26.1 °F24.1 °F92 %30.25 in10.0 miCalmClear
Hourly data recorded from KCNY, located miles away from Dewey, Utah







STORIES FROM OUR PARTNERS